• In Hungary
  • List of Countries
  • For 7 days
  • Water Temperature
  • Satellite Maps
  • Weather Map
  • News
  • Weather Widgets
  • user-avatar
    Login

    Hourly Weather Tyrgowishte

    Today, 17 December, Sunday

    Time Temperature Precipitation Wind Pressure Humidity
    00:00 +9°C° 0.4 mm 3 mps 739 mmHg 83%
    01:00 +8°C° 0.4 mm 2 mps 739 mmHg 84%
    02:00 +8°C° 0 mm 2 mps 739 mmHg 82%
    03:00 +7°C° 0.2 mm 2 mps 739 mmHg 83%
    04:00 +7°C° 0.2 mm 2 mps 739 mmHg 83%
    05:00 +7°C° 0.2 mm 2 mps 739 mmHg 83%
    06:00 +6°C° 0.3 mm 2 mps 739 mmHg 84%
    07:00 +6°C° 0.3 mm 2 mps 739 mmHg 85%
    08:00 +4°C° 0 mm 3 mps 739 mmHg 84%
    09:00 +4°C° 0.9 mm 3 mps 739 mmHg 86%
    10:00 +4°C° 0.9 mm 3 mps 739 mmHg 87%
    11:00 +4°C° 0.9 mm 3 mps 739 mmHg 88%
    12:00 +4°C° 0.6 mm 3 mps 739 mmHg 87%
    13:00 +4°C° 0.6 mm 4 mps 739 mmHg 87%
    14:00 +4°C° 0 mm 4 mps 739 mmHg 86%
    15:00 +4°C° 0.5 mm 4 mps 739 mmHg 86%
    16:00 +3°C° 0.5 mm 4 mps 739 mmHg 86%
    17:00 +3°C° 0.5 mm 4 mps 740 mmHg 86%
    18:00 +3°C° 0.8 mm 4 mps 740 mmHg 87%
    19:00 +3°C° 0.8 mm 4 mps 740 mmHg 88%
    20:00 +1°C° 0.8 mm 4 mps 741 mmHg 89%
    21:00 +1°C° 0.3 mm 4 mps 741 mmHg 89%
    22:00 +1°C° 0.3 mm 4 mps 742 mmHg 90%
    23:00 +1°C° 0.3 mm 4 mps 743 mmHg 90%

    Tomorrow, 18 December, Monday

    Time Temperature Precipitation Wind Pressure Humidity
    00:00 +1°C° 0.1 mm 3 mps 743 mmHg 90%
    01:00 +1°C° 0.1 mm 3 mps 743 mmHg 90%
    02:00 +1°C° 0.1 mm 3 mps 744 mmHg 91%
    03:00 +1°C° 0 mm 3 mps 744 mmHg 91%
    04:00 +2°C° 0 mm 2 mps 744 mmHg 90%
    05:00 +2°C° 0 mm 2 mps 744 mmHg 90%
    06:00 +2°C° 0 mm 2 mps 745 mmHg 91%
    07:00 +2°C° 0 mm 2 mps 745 mmHg 91%
    08:00 +2°C° 0 mm 1 mps 745 mmHg 91%
    09:00 +2°C° 0 mm 2 mps 746 mmHg 87%
    10:00 +3°C° 0 mm 2 mps 746 mmHg 84%
    11:00 +3°C° 0 mm 2 mps 746 mmHg 80%
    12:00 +4°C° 0 mm 2 mps 746 mmHg 78%
    13:00 +5°C° 0 mm 1 mps 746 mmHg 76%
    14:00 +5°C° 0 mm 1 mps 745 mmHg 74%
    15:00 +5°C° 0 mm 1 mps 746 mmHg 76%
    16:00 +4°C° 0 mm 1 mps 746 mmHg 78%
    17:00 +4°C° 0 mm 1 mps 746 mmHg 81%
    18:00 +4°C° 0 mm 1 mps 746 mmHg 82%
    19:00 +3°C° 0 mm 1 mps 746 mmHg 83%
    20:00 +3°C° 0 mm 1 mps 746 mmHg 84%
    21:00 +3°C° 0.1 mm 1 mps 746 mmHg 84%
    22:00 +2°C° 0.1 mm 2 mps 747 mmHg 84%
    23:00 +2°C° 0.1 mm 2 mps 747 mmHg 84%

    Day after tomorrow, 19 December, Tuesday

    Time Temperature Precipitation Wind Pressure Humidity
    00:00 +1°C° 0.1 mm 2 mps 747 mmHg 85%
    01:00 +1°C° 0.1 mm 2 mps 747 mmHg 85%
    02:00 +1°C° 0.1 mm 2 mps 748 mmHg 85%
    03:00 +1°C° 0.4 mm 2 mps 748 mmHg 86%
    04:00 -1°C° 0.4 mm 3 mps 748 mmHg 87%
    05:00 -1°C° 0.4 mm 3 mps 748 mmHg 87%
    06:00 -1°C° 0.5 mm 3 mps 749 mmHg 88%
    07:00 -1°C° 0.5 mm 3 mps 749 mmHg 89%
    08:00 -2°C° 0.5 mm 3 mps 749 mmHg 90%
    09:00 -1°C° 0.5 mm 3 mps 750 mmHg 89%
    10:00 -1°C° 0.5 mm 3 mps 750 mmHg 88%
    11:00 -1°C° 0.5 mm 3 mps 751 mmHg 87%
    12:00 -1°C° 0.6 mm 3 mps 750 mmHg 87%
    13:00 -1°C° 0.6 mm 3 mps 750 mmHg 87%
    14:00 -1°C° 0.6 mm 3 mps 750 mmHg 87%
    15:00 -1°C° 0.4 mm 2 mps 751 mmHg 89%
    16:00 -1°C° 0.4 mm 2 mps 751 mmHg 90%
    17:00 -2°C° 0.4 mm 2 mps 751 mmHg 92%
    18:00 -2°C° 0.4 mm 2 mps 751 mmHg 92%
    19:00 -2°C° 0.4 mm 2 mps 752 mmHg 93%
    20:00 -2°C° 0.4 mm 2 mps 752 mmHg 94%
    21:00 -2°C° 0.2 mm 2 mps 752 mmHg 94%
    22:00 -2°C° 0.2 mm 2 mps 752 mmHg 94%
    23:00 -2°C° 0.2 mm 2 mps 753 mmHg 94%

    20 December, Wednesday

    Time Temperature Precipitation Wind Pressure Humidity
    00:00 -2°C° 0.1 mm 2 mps 753 mmHg 94%
    01:00 -2°C° 0.1 mm 2 mps 753 mmHg 94%
    02:00 -2°C° 0.1 mm 2 mps 753 mmHg 94%
    03:00 -2°C° 0.1 mm 2 mps 753 mmHg 94%
    04:00 -3°C° 0.1 mm 2 mps 753 mmHg 93%
    05:00 -3°C° 0.1 mm 2 mps 753 mmHg 93%
    06:00 -1°C° 0.1 mm 1 mps 753 mmHg 93%
    07:00 -1°C° 0.1 mm 1 mps 753 mmHg 93%
    08:00 -2°C° 0.1 mm 1 mps 753 mmHg 92%
    09:00 -1°C° 0.1 mm 1 mps 754 mmHg 90%
    10:00 -2°C° 0.1 mm 2 mps 754 mmHg 88%
    11:00 -1°C° 0.1 mm 2 mps 754 mmHg 86%
    12:00 -1°C° 0 mm 2 mps 754 mmHg 86%
    13:00 -1°C° 0 mm 2 mps 754 mmHg 87%
    14:00 -1°C° 0 mm 2 mps 753 mmHg 87%
    15:00 -2°C° 0 mm 2 mps 753 mmHg 88%
    16:00 -2°C° 0 mm 2 mps 753 mmHg 89%
    17:00 -3°C° 0 mm 2 mps 753 mmHg 90%
    18:00 -4°C° 0 mm 2 mps 754 mmHg 90%
    19:00 -4°C° 0 mm 2 mps 754 mmHg 90%
    20:00 -4°C° 0 mm 2 mps 754 mmHg 90%
    21:00 -4°C° 0 mm 2 mps 754 mmHg 89%
    22:00 -5°C° 0 mm 2 mps 754 mmHg 89%
    23:00 -5°C° 0 mm 2 mps 755 mmHg 88%

    21 December, Thursday

    Time Temperature Precipitation Wind Pressure Humidity
    00:00 -5°C° 0 mm 2 mps 755 mmHg 88%
    01:00 -5°C° 0 mm 2 mps 755 mmHg 88%
    02:00 -5°C° 0 mm 2 mps 754 mmHg 88%
    03:00 -6°C° 0 mm 2 mps 754 mmHg 88%
    04:00 -6°C° 0 mm 2 mps 754 mmHg 88%
    05:00 -6°C° 0 mm 2 mps 754 mmHg 87%
    06:00 -6°C° 0 mm 2 mps 754 mmHg 87%
    07:00 -6°C° 0 mm 2 mps 754 mmHg 86%
    08:00 -6°C° 0 mm 2 mps 754 mmHg 86%
    09:00 -5°C° 0 mm 2 mps 754 mmHg 82%
    10:00 -4°C° 0 mm 3 mps 754 mmHg 79%
    11:00 -2°C° 0 mm 3 mps 754 mmHg 76%
    12:00 -2°C° 0 mm 3 mps 753 mmHg 76%
    13:00 -1°C° 0 mm 3 mps 753 mmHg 76%
    14:00 -1°C° 0 mm 3 mps 752 mmHg 76%
    15:00 -2°C° 0 mm 3 mps 752 mmHg 79%
    16:00 -4°C° 0 mm 3 mps 752 mmHg 82%
    17:00 -4°C° 0 mm 2 mps 752 mmHg 86%
    18:00 -5°C° 0 mm 2 mps 752 mmHg 85%
    19:00 -5°C° 0 mm 2 mps 752 mmHg 85%
    20:00 -5°C° 0 mm 2 mps 752 mmHg 85%
    21:00 -5°C° 0 mm 2 mps 752 mmHg 83%
    22:00 -5°C° 0 mm 2 mps 751 mmHg 82%
    23:00 -5°C° 0 mm 2 mps 751 mmHg 81%

    22 December, Friday

    Time Temperature Precipitation Wind Pressure Humidity
    00:00 -5°C° 0 mm 2 mps 751 mmHg 79%
    01:00 -5°C° 0 mm 2 mps 751 mmHg 78%
    02:00 -5°C° 0 mm 2 mps 750 mmHg 76%
    03:00 -5°C° 0 mm 2 mps 750 mmHg 75%
    04:00 -5°C° 0 mm 2 mps 750 mmHg 75%
    05:00 -5°C° 0 mm 2 mps 749 mmHg 74%
    06:00 -5°C° 0 mm 2 mps 749 mmHg 75%
    07:00 -4°C° 0 mm 2 mps 749 mmHg 77%
    08:00 -3°C° 0 mm 2 mps 749 mmHg 78%
    09:00 -2°C° 0.1 mm 3 mps 749 mmHg 80%
    10:00 -1°C° 0.1 mm 3 mps 748 mmHg 82%
    11:00 -1°C° 0.1 mm 4 mps 748 mmHg 83%
    12:00 0°C° 0 mm 4 mps 748 mmHg 83%
    13:00 0°C° 0 mm 5 mps 747 mmHg 83%
    14:00 +1°C° 0 mm 5 mps 746 mmHg 83%
    15:00 0°C° 0 mm 5 mps 746 mmHg 84%
    16:00 0°C° 0 mm 5 mps 746 mmHg 85%
    17:00 0°C° 0 mm 4 mps 746 mmHg 86%
    18:00 -1°C° 0 mm 4 mps 746 mmHg 87%
    19:00 -1°C° 0 mm 4 mps 746 mmHg 88%
    20:00 -1°C° 0 mm 4 mps 746 mmHg 89%
    21:00 -1°C° 0 mm 4 mps 745 mmHg 88%
    22:00 -1°C° 0 mm 4 mps 745 mmHg 88%
    23:00 -1°C° 0 mm 5 mps 745 mmHg 87%
    Show more